Forside
METAR-TAF:

METAR-TAF

Lufthavne :

DeKalb Taylor Municipal Airport

DeKalb, Illinois, USA

Breddekreds: 41-55-55N, længdekreds: 088-42-30W, højde: 279 m

Aktuelle vejr

Denne rapport blev lavet for 17 minutter siden, kl. 15:55 UTC
Vind 3 kt fra vestnordvest
Temperatur 24°C
Fugtighed 54%
Tryk 1021 hPa
Sigt: 16.1 km
skyfri

METAR: KDKB 031555Z AUTO 29003KT 10SM CLR 24/14 A3014 RMK AO2 T02380141

Tid: 11:12 (16:12 UTC)


TAF: fraværende

Vejrobservationer og prognoser fra mere end 4000 lufthavne (METAR og TAF).

De gule og røde prikker repræsenterer de meteorologiske stationer.

Flyt musen over at se navnet på stationen.

Så klik over at se vejr observationer og prognoser.

At skifte det kort: Klik på de grønne knapper med et sort kors for at zoome ind; på den grønne knap med en bindestreg for at zoome ud; eller på de grønne pile for tilstødende kort.


METAR-TAF: